Home > Weather > Pelotas > Past weeks

Flag for Brazil Past Weather in Pelotas, Rio Grande do Sul, Brazil — Yesterday and Last 2 Weeks

Now
59 °F

Passing clouds.


Feels Like: 58 °F
Forecast: N/A
Wind: 7 mph from Southeast

Location: Pelotas Airport

Current Time: Aug 25, 2016 at 7:24:14 PM

Latest Report: Aug 25, 2016 at 7:00 PM


Visibility: N/A

Pressure: 30.01 "Hg

Humidity: 88%

Dew Point: 55 °F

Location of PelotasLocation

Past Weather in Pelotas — Graph

°F

Pelotas Temperature Yesterday

Maximum temperature yesterday: 72 °F (at 12:00 PM)
Minimum temperature yesterday: 45 °F (at 7:00 AM)
Average temperature yesterday: 61 °F

High & Low Weather Summary for the Past Weeks

 TemperatureHumidityPressure
High82 °F (Aug 15, 2:00 PM)100% (Aug 11, 9:00 AM)30.36 "Hg (Aug 11, 9:00 AM)
Low36 °F (Aug 22, 7:00 AM)21% (Aug 18, 12:00 PM)29.65 "Hg (Aug 15, 3:00 PM)
Average61 °F69%30.05 "Hg
* Reported Aug 10 6:00 PM — Aug 25 6:00 PM, Pelotas, Weather by CustomWeather, © 2016

Note: Actual official high and low records may vary slightly from our data, if they occured in-between our weather recording intervals... More about our weather records

Advertising

Pelotas Weather History for the Previous 24 Hours

Scroll right to see more
 ConditionsComfort  
Time TempWeatherWind HumidityBarometerVisibility
6:00 PM
Thu, Aug 25
64 °FPassing clouds.6 mph83%30.01 "HgN/A
5:00 PM68 °FSunny.7 mph78%30.01 "Hg10 mi
4:00 PM70 °FSunny.8 mph69%30.01 "Hg10 mi
3:00 PM73 °FSunny.8 mph65%30.01 "Hg10 mi
2:00 PM77 °FSunny.6 mph61%30.01 "Hg10 mi
1:00 PM75 °FSunny.6 mph61%30.04 "Hg10 mi
12:00 PM72 °FSunny.5 mph61%30.07 "Hg10 mi
11:00 AM68 °FSunny.2 mph64%30.09 "Hg10 mi
10:00 AM59 °FPassing clouds.2 mph88%30.09 "HgN/A
9:00 AM54 °FFog.2 mph100%30.09 "Hg3 mi
8:00 AM50 °FFog.1 mph100%30.07 "Hg0 mi
7:00 AM50 °FFog.2 mph100%30.07 "Hg0 mi
2:45 AM54 °FFog.2 mph100%30.07 "Hg1 mi
2:00 AM52 °FFog.2 mph100%30.07 "Hg1 mi
1:00 AM52 °FFog.2 mph100%30.09 "Hg1 mi
12:00 AM52 °FClear.6 mph100%30.07 "Hg10 mi
11:00 PM
Wed, Aug 24
50 °FClear.8 mph100%30.09 "Hg10 mi
10:00 PM52 °FClear.3 mph100%30.09 "Hg10 mi
9:00 PM54 °FClear.3 mph94%30.09 "Hg10 mi
8:00 PM54 °FClear.6 mph94%30.07 "Hg10 mi
7:00 PM57 °FClear.8 mph82%30.07 "Hg10 mi
Weather by CustomWeather, © 2016

See weather overviewHow to use our weather pages